User: anonymous   Login
Location: Spruce Knob
(38.6995°N, 79.5330°W)
Time: 19:31:25
(UTC-05:00)
Language:

Tiros 1 despin weight - Orbit

View from above orbital plane
View from above orbital plane
View from above satellite
View from above satellite

Ground track
Ground track

The orbit data is extracted from the following two-line orbital elements,

1   115U 60002D   22022.57858610  .00000722  00000-0  11165-3 0  9991
2   115  48.1679 344.7061 0035097 303.4297  56.3261 14.83995224299719
Epoch (UTC): 22 January 2022 13:53:09
Eccentricity: 0.0035097
inclination: 48.1679°
perigee height: 592 km
apogee height: 641 km
right ascension of ascending node: 344.7061°
argument of perigee: 303.4297°
revolutions per day: 14.83995224
mean anomaly at epoch: 56.3261°
orbit number at epoch: 29971

The dashed part of the orbit path shows where the satellite is in the earth's shadow,  

DLR